Home   Weather   Ålgård   Past weeks

Flag for Norway Past Weather in Ålgård, Norway — Yesterday and Last 2 Weeks

50 °F

Passing clouds.

Feels Like: 48 °F
Forecast: 48 / 52 °F
Wind: 5 mph from Northeast

Location: Stavanger / Sola

Current Time: Oct 21, 2016 at 5:04:32 PM

Latest Report: Oct 21, 2016 at 4:20 PM

Visibility: N/A

Pressure: 30.24 "Hg

Humidity: 50%

Dew Point: 32 °F

Location of ÅlgårdLocation

Past Weather in Ålgård — Graph


Ålgård Temperature Yesterday

Maximum temperature yesterday: 54 °F (at 2:50 PM)
Minimum temperature yesterday: 39 °F (at 2:50 AM)
Average temperature yesterday: 47 °F

High & Low Weather Summary for the Past Weeks

High61 °F (Oct 6, 3:20 PM)100% (Oct 20, 2:50 AM)30.60 "Hg (Oct 20, 2:50 AM)
Low36 °F (Oct 9, 5:50 AM)30% (Oct 15, 12:20 PM)29.89 "Hg (Oct 18, 4:20 PM)
Average48 °F67%30.31 "Hg
* Reported Oct 6 3:20 PM — Oct 21 3:50 PM, Ålgård, Weather by CustomWeather, © 2016

Note: Actual official high and low records may vary slightly from our data, if they occured in-between our weather recording intervals... More about our weather records


Ålgård Weather History for the Previous 24 Hours

Scroll right to see more
Time TempWeatherWind HumidityBarometerVisibility
3:50 PM
Fri, Oct 21
50 °FPassing clouds.7 mph47%30.24 "HgN/A
3:20 PM48 °FPassing clouds.9 mph50%30.24 "HgN/A
2:50 PM48 °FPassing clouds.9 mph50%30.24 "HgN/A
2:20 PM48 °FPassing clouds.7 mph54%30.24 "HgN/A
1:50 PM50 °FPassing clouds.9 mph54%30.27 "HgN/A
1:20 PM50 °FPassing clouds.10 mph54%30.27 "HgN/A
12:50 PM50 °FSunny.9 mph58%30.27 "Hg10 mi
12:20 PM50 °FSunny.5 mph58%30.27 "Hg10 mi
11:50 AM48 °FSunny.3 mph71%30.27 "Hg10 mi
11:20 AM48 °FBroken clouds.3 mph76%30.27 "HgN/A
10:50 AM46 °FBroken clouds.2 mph76%30.27 "HgN/A
10:20 AM45 °FBroken clouds.No wind81%30.27 "HgN/A
9:50 AM45 °FBroken clouds.No wind81%30.24 "HgN/A
9:20 AM45 °FBroken clouds.1 mph76%30.24 "HgN/A
8:50 AM46 °FPartly sunny.1 mph76%30.24 "HgN/A
8:20 AM45 °FPassing clouds.1 mph81%30.24 "HgN/A
7:50 AM46 °FPassing clouds.No wind76%30.24 "HgN/A
7:20 AM46 °FPassing clouds.No wind76%30.24 "HgN/A
6:50 AM45 °FPassing clouds.3 mph81%30.24 "HgN/A
6:20 AM46 °FPassing clouds.No wind82%30.24 "HgN/A
5:50 AM46 °FClear.2 mph82%30.24 "Hg10 mi
4:50 AM46 °FClear.2 mph82%30.24 "Hg10 mi
3:50 AM46 °FClear.No wind82%30.24 "Hg10 mi
2:50 AM46 °FClear.No wind82%30.24 "Hg10 mi
1:50 AM46 °FClear.No wind82%30.24 "Hg10 mi
12:50 AM48 °FClear.3 mph71%30.24 "Hg10 mi
12:20 AM48 °FPassing clouds.3 mph76%30.24 "HgN/A
11:50 PM
Thu, Oct 20
48 °FPassing clouds.3 mph76%30.24 "HgN/A
11:20 PM48 °FPassing clouds.5 mph82%30.24 "HgN/A
10:50 PM48 °FPartly cloudy.5 mph82%30.24 "HgN/A
10:20 PM48 °FPassing clouds.6 mph82%30.24 "HgN/A
9:50 PM50 °FPassing clouds.7 mph76%30.24 "HgN/A
9:20 PM50 °FPassing clouds.5 mph76%30.24 "HgN/A
8:50 PM50 °FPassing clouds.2 mph76%30.24 "HgN/A
8:20 PM50 °FPassing clouds.No wind76%30.24 "HgN/A
7:50 PM50 °FPassing clouds.No wind76%30.24 "HgN/A
7:20 PM50 °FPartly cloudy.3 mph76%30.24 "HgN/A
6:50 PM52 °FPartly cloudy.No wind72%30.24 "HgN/A
6:20 PM52 °FPartly cloudy.3 mph67%30.21 "HgN/A
5:50 PM52 °FBroken clouds.3 mph72%30.21 "HgN/A
5:20 PM54 °FBroken clouds.3 mph67%30.21 "HgN/A
Weather by CustomWeather, © 2016

See weather overviewHow to use our weather pages